Simultaneous Nadir Overpasses (SNOs) Predictions

Prediction of SNOs between METOP-A and TERRA Satellite Orbit:

Table of predicted SNOs for the next 14.0 days since TLE Epoch: 1/19/2018
Index Date (METOP-A) Time (METOP-A) Lat,Lon (METOP-A) SZA (METOP-A ) Date (TERRA) Time (TERRA) Lat,Lon (TERRA) SZA (TERRA ) Distance(km) Time Diff (sec)
1 01/22/2018 09:57:52 81.39, 79.55 103.53 01/22/2018 09:58:34 81.40, 79.51 103.55 1.08 42
2 01/22/2018 10:48:32 -81.39,-112.82 76.45 01/22/2018 10:48:01 -81.39,-112.89 76.47 1.21 31
3 01/25/2018 05:32:11 81.39, 145.84 102.83 01/25/2018 05:32:49 81.39, 145.80 102.84 0.63 38
4 01/25/2018 06:22:51 -81.39, -46.53 77.15 01/25/2018 06:22:16 -81.39, -46.58 77.17 0.80 35
5 01/28/2018 01:06:30 81.39,-147.89 102.09 01/28/2018 01:07:04 81.38,-147.97 102.09 1.58 34
6 01/28/2018 01:57:09 -81.39, 20.14 77.85 01/28/2018 01:56:30 -81.40, 20.06 77.87 1.50 39
7 01/30/2018 20:40:47 81.39, -81.25 101.34 01/30/2018 20:41:17 81.38, -81.41 101.34 2.79 30
8 01/30/2018 21:31:27 -81.39, 86.39 78.64 01/30/2018 21:30:44 -81.38, 86.24 78.68 2.53 43
9 02/02/2018 16:15:06 81.39, -15.01 100.52 02/02/2018 16:15:31 81.39, -14.91 100.54 1.68 25




NCC Satellite Simultaneous Nadir Overpasses (SNOs) Prediction Service
